GFSFLT2_sfc_thetae_000.txt.gz
Theta_e
316 319 319 314 313 313 314 314 314 315 318 318 317 318 319 319 318 317 316 313 312 311 309 308 305 305 304
311 313 315 317 316 314 312 312 312 313 315 316 317 317 317 316 314 313 311 310 309 307 306 304 303 304 304
308 311 313 314 305 306 309 308 309 309 312 314 316 316 316 314 312 310 308 306 305 303 302 301 301 302 302
307 308 309 311 305 309 304 298 302 303 306 309 312 313 314 312 308 306 304 303 302 301 300 299 299 298 299
303 306 307 306 302 303 302 305 299 302 299 301 306 308 308 308 304 303 302 301 300 300 299 298 297 296 297
299 301 303 305 307 307 305 302 298 297 297 298 300 299 300 301 302 301 300 299 299 298 298 297 296 296 296
297 298 299 303 306 305 305 304 303 293 296 293 292 293 292 295 299 299 298 297 297 296 296 295 295 295 295
298 298 299 301 303 303 303 301 289 291 293 288 287 288 288 291 298 297 296 295 295 295 295 295 294 294 294
300 301 301 302 303 301 298 293 290 286 286 285 284 283 285 285 289 293 293 293 294 294 294 294 294 293 292
296 298 300 300 297 295 297 294 289 283 285 284 282 282 280 282 284 285 289 294 294 294 294 294 293 286 284
292 295 295 288 288 287 288 291 289 286 286 285 282 280 280 278 280 281 281 281 282 286 292 292 292 289 281
288 288 287 286 286 285 285 285 286 286 287 284 281 280 278 277 277 277 277 278 279 278 278 282 287 290 290
286 286 286 285 283 282 283 283 282 282 282 281 281 279 279 278 275 276 276 277 277 276 276 277 277 277 277
285 286 284 282 281 282 281 281 279 278 280 280 279 278 276 276 276 274 274 274 276 275 276 276 277 277 277
284 283 283 281 280 280 281 280 278 277 277 278 279 278 277 275 272 274 274 274 275 275 275 275 276 277 277
283 282 281 280 279 279 280 279 277 277 277 277 276 272 271 274 277 274 274 274 274 275 275 274 274 275 277
282 281 280 279 280 279 279 279 278 276 274 273 268 265 264 266 271 280 275 275 275 275 275 274 274 275 277

GFSFLT2_sfc_thetae_003.txt.gz
Theta_e
307 309 310 311 314 315 314 315 315 316 318 318 317 317 317 318 319 321 322 322 323 325 324 320 318 314 312
302 304 307 310 312 313 314 313 312 314 315 315 316 316 316 316 317 318 318 319 320 321 320 319 316 313 311
300 304 305 307 309 311 309 311 309 309 312 313 315 315 315 315 316 316 316 316 316 315 314 313 312 310 308
295 298 301 303 305 305 306 303 303 306 307 308 310 311 313 314 314 313 313 312 312 311 310 308 306 305 305
292 294 295 297 298 301 302 305 306 303 303 301 302 304 307 311 311 310 310 310 309 308 306 304 302 302 302
290 291 292 295 297 298 297 297 297 299 299 301 300 301 304 308 310 308 307 306 306 304 303 301 300 299 299
291 292 293 295 296 295 295 296 298 301 297 296 294 297 294 298 307 306 305 303 303 302 301 299 298 297 297
294 295 296 297 298 297 297 297 298 299 296 294 290 293 289 293 304 303 301 300 300 299 298 298 297 297 296
296 297 296 296 298 297 295 294 293 295 291 290 284 284 286 287 295 300 299 299 298 297 296 296 296 296 295
290 291 292 292 295 292 290 287 288 289 286 287 283 283 281 282 285 291 292 294 294 295 296 296 295 291 287
287 287 288 289 290 289 288 286 285 286 290 288 283 282 281 279 281 282 283 286 289 293 295 295 295 290 285
285 285 285 285 287 286 284 284 285 284 287 286 282 280 278 278 277 278 279 279 281 280 281 290 294 294 291
283 284 285 286 285 282 283 283 281 280 281 282 282 281 280 277 276 276 277 277 279 278 278 279 279 279 281
283 284 285 284 282 282 281 281 279 278 279 280 279 279 277 277 278 277 277 276 277 277 277 277 277 278 278
283 283 282 282 281 281 280 280 278 277 276 278 279 278 277 277 275 276 275 275 276 276 276 275 276 277 277
282 282 281 281 280 280 280 279 277 277 276 277 276 275 275 276 279 275 275 274 275 275 275 274 274 275 276
282 282 280 280 280 279 279 279 277 276 275 274 272 271 271 269 272 279 275 274 274 274 274 274 274 275 277

GFSFLT2_sfc_thetae_006.txt.gz
Theta_e
294 294 296 299 305 308 309 310 313 315 317 317 317 317 317 317 318 319 320 321 323 325 326 326 327 326 326
291 292 294 296 299 301 304 307 309 312 315 315 315 316 316 316 316 317 317 318 319 321 323 324 325 325 324
289 292 292 293 296 298 299 300 305 308 312 313 313 314 314 315 315 315 315 315 315 316 318 320 322 323 323
288 289 289 292 293 292 293 297 297 302 305 308 310 311 311 312 312 311 312 313 314 315 315 315 317 319 319
287 287 287 288 288 291 293 295 297 298 298 301 305 304 304 307 307 308 309 310 312 314 315 316 315 315 315
285 284 285 287 290 292 292 291 290 297 297 298 300 301 302 302 306 308 308 309 311 312 313 314 311 310 309
284 284 285 289 291 289 290 289 289 294 296 294 298 298 301 301 304 305 307 309 310 310 309 307 306 306 305
288 288 290 292 290 291 290 290 292 295 297 292 297 295 293 293 298 300 304 307 308 306 304 303 302 301 301
291 292 292 292 292 289 286 286 285 287 292 292 293 288 285 287 290 299 305 304 303 302 301 300 299 299 297
286 287 288 288 291 289 287 284 284 283 287 288 285 284 284 283 285 291 298 301 301 300 300 299 298 293 292
283 284 285 286 287 287 287 285 282 281 286 287 285 283 283 280 281 282 287 291 292 294 296 296 296 293 290
281 282 283 283 285 285 286 285 283 281 281 281 282 284 280 278 279 279 280 282 285 287 291 295 296 294 293
279 280 281 283 285 284 284 283 281 281 280 279 282 281 280 279 277 276 278 279 282 282 284 285 284 290 289
278 279 280 282 282 282 281 280 279 279 280 280 279 279 278 278 280 277 279 278 278 280 280 279 280 282 283
277 277 278 281 281 281 280 280 278 277 276 278 279 279 279 278 277 277 276 277 278 277 278 277 278 279 279
277 277 277 280 279 280 280 279 277 277 276 276 275 276 276 278 280 276 276 276 276 277 277 276 275 277 278
276 277 278 280 279 279 279 279 276 275 274 274 272 272 273 271 274 280 276 276 275 275 276 275 275 276 277

GFSFLT2_sfc_thetae_009.txt.gz
Theta_e
296 297 295 295 297 299 299 300 305 307 309 309 309 311 314 315 316 317 319 320 321 323 324 325 327 327 327
292 292 292 295 296 296 296 300 301 302 303 308 306 307 310 312 313 315 315 316 317 319 321 322 323 325 326
289 291 292 293 292 294 295 296 298 300 302 304 305 305 306 307 310 313 313 314 314 315 316 318 320 322 324
288 288 289 290 291 289 290 293 294 298 300 302 303 303 305 307 309 309 309 310 312 314 314 314 315 316 318
286 286 286 287 286 289 288 288 291 295 296 299 300 301 302 302 305 306 307 308 309 311 312 314 313 314 316
285 284 285 287 288 287 287 286 286 294 292 291 296 297 301 301 303 305 305 306 307 308 309 310 310 311 313
284 284 284 286 287 286 287 287 286 290 291 287 293 293 297 299 303 303 304 304 304 305 307 308 309 310 311
285 285 287 288 288 288 287 287 288 289 290 285 291 289 296 300 301 300 300 301 302 302 304 306 308 309 311
287 288 288 289 289 287 286 285 282 286 289 286 287 289 291 291 292 294 296 298 300 302 304 307 305 304 305
284 284 285 286 288 287 286 282 282 282 288 285 286 286 286 290 287 287 287 303 303 304 303 302 299 296 296
281 282 283 284 285 286 286 284 282 281 287 285 284 283 284 285 285 283 285 292 298 299 300 298 297 295 292
279 280 281 281 282 283 284 285 286 284 286 283 280 281 282 283 283 283 282 285 291 291 293 295 296 296 295
278 279 280 280 281 282 284 285 285 285 284 281 280 280 282 283 282 281 281 281 285 288 291 290 290 290 290
277 279 280 280 280 281 283 283 282 282 283 282 281 281 281 283 283 282 282 282 282 283 283 284 289 291 291
277 278 278 279 279 281 282 282 280 280 279 280 281 282 282 282 280 280 281 280 281 282 282 280 281 285 288
277 277 277 277 278 281 281 281 279 278 277 278 278 279 279 280 282 278 279 278 280 281 281 279 278 280 284
277 277 277 277 279 280 280 280 278 277 276 275 275 274 275 274 277 281 278 278 279 278 280 279 279 279 282

GFSFLT2_sfc_thetae_012.txt.gz
Theta_e
292 293 292 293 294 295 297 297 297 298 299 301 302 304 305 308 307 309 311 313 314 317 320 321 322 324 326
289 290 290 292 293 292 293 294 295 296 297 298 299 302 304 305 307 306 307 308 311 314 317 318 319 321 325
287 290 291 292 291 291 292 292 293 296 296 297 299 300 302 303 304 305 305 307 309 311 313 315 317 318 319
288 288 289 290 290 289 288 292 291 293 294 296 297 299 300 301 303 303 304 305 308 310 311 311 312 314 317
286 286 286 286 286 288 287 288 290 292 293 294 296 297 298 297 298 300 302 304 307 308 308 309 309 310 314
285 284 284 285 286 286 286 285 282 291 290 291 292 291 295 296 297 299 301 303 304 306 306 307 306 308 309
284 284 284 285 286 285 285 285 285 289 289 287 292 291 294 296 296 297 300 302 303 304 305 304 304 305 308
285 286 286 287 286 286 285 286 288 289 290 285 290 289 292 291 295 297 299 300 301 301 302 302 302 303 305
287 287 286 286 286 285 283 283 282 285 288 285 287 286 289 289 293 296 296 295 296 298 299 300 301 303 304
284 284 284 285 286 285 284 281 281 281 286 284 285 286 283 291 290 291 293 292 293 301 302 301 302 301 300
281 282 282 283 284 285 284 282 280 280 285 285 284 284 283 283 287 291 287 287 293 298 301 301 301 299 297
280 280 280 280 282 283 283 283 283 283 284 285 283 282 281 281 282 288 286 285 291 292 294 297 299 299 299
279 279 280 281 282 282 283 283 284 285 285 285 283 282 281 280 281 285 284 283 287 289 289 289 290 292 293
278 279 280 280 280 281 281 282 282 284 285 283 283 282 280 281 283 285 285 282 284 285 287 287 289 289 290
278 278 278 279 280 281 281 281 281 281 280 282 283 283 283 283 283 284 283 282 284 284 285 283 286 288 288
278 278 278 278 278 279 281 281 279 278 278 278 279 280 282 281 284 281 282 281 283 284 286 284 282 288 290
277 277 277 277 278 280 281 280 279 278 278 277 276 276 278 275 279 283 280 281 282 281 283 282 281 283 289

GFSFLT2_sfc_thetae_015.txt.gz
Theta_e
289 291 290 290 291 292 293 293 293 296 297 297 297 298 299 299 301 301 302 305 307 308 309 312 316 318 320
287 287 288 289 290 290 290 291 291 294 296 295 296 297 297 298 301 302 303 304 304 304 306 308 311 315 318
284 287 288 289 288 289 288 288 290 293 294 294 294 296 297 298 299 300 301 303 302 302 306 308 310 312 315
285 285 286 287 287 285 284 286 286 289 290 291 293 294 296 297 297 297 298 298 299 301 305 305 308 311 313
284 284 284 283 282 284 282 283 285 286 286 287 289 290 291 293 294 296 297 298 298 300 303 305 307 309 309
283 282 281 282 282 282 282 281 279 286 284 284 287 287 289 291 294 295 295 296 297 298 299 302 305 306 308
282 281 280 282 283 282 282 280 279 283 284 282 287 286 290 290 292 293 295 295 296 297 299 302 303 305 306
283 282 283 284 284 282 281 282 283 284 285 281 285 284 287 288 291 293 293 295 296 298 299 300 302 303 303
287 287 287 286 285 282 280 279 278 280 283 281 282 282 284 285 287 292 291 292 294 295 295 297 298 300 300
282 282 283 283 285 283 281 278 278 276 281 279 280 281 280 284 286 286 287 290 292 293 294 297 298 297 297
279 280 280 281 282 282 282 280 278 277 281 281 280 280 280 280 283 284 285 287 287 288 301 303 302 300 297
278 278 278 279 279 280 281 281 282 280 282 282 280 280 280 279 278 282 283 287 285 288 291 298 302 302 301
277 277 278 279 279 279 281 281 282 282 283 284 283 282 280 278 277 279 281 284 285 286 287 288 289 293 292
277 278 278 278 278 279 279 279 279 280 285 283 282 281 278 279 279 278 283 281 284 285 286 286 287 290 291
277 276 277 277 277 278 279 279 279 279 278 280 281 281 282 281 280 282 282 282 283 284 285 285 285 288 291
276 276 276 276 276 278 280 280 278 278 277 277 277 277 280 281 284 281 281 282 284 285 285 285 284 288 291
276 276 276 276 277 278 279 280 279 278 278 277 275 274 277 274 278 284 280 281 282 281 282 283 284 286 290

GFSFLT2_sfc_thetae_018.txt.gz
Theta_e
285 286 286 286 287 288 290 289 290 294 294 295 294 295 296 297 298 298 299 300 301 302 304 306 307 309 310
284 285 285 286 286 286 288 289 289 291 293 293 293 294 295 295 295 295 298 298 299 301 302 304 306 307 307
282 285 285 286 285 286 286 285 287 289 290 291 292 293 293 294 294 295 297 297 298 298 298 301 302 303 305
283 283 283 285 285 282 281 283 282 285 287 289 290 291 292 292 293 293 293 295 296 297 298 299 300 302 305
282 282 281 281 280 281 279 280 281 283 283 283 283 284 286 289 290 292 293 295 296 297 298 298 299 300 303
281 279 279 280 281 279 279 278 277 283 280 280 283 283 285 286 291 292 294 294 294 295 296 296 297 299 300
279 278 279 281 281 279 280 280 278 280 281 279 282 281 285 286 289 291 292 293 293 294 295 296 296 297 299
282 282 283 283 282 281 280 279 280 281 281 277 282 279 282 284 289 289 290 291 293 293 294 295 297 298 300
287 287 285 285 284 281 278 277 276 277 280 278 279 278 280 281 284 288 291 291 290 291 292 293 295 296 296
279 280 281 281 284 281 279 276 275 274 278 276 277 278 276 281 283 284 285 288 289 290 291 292 293 291 292
277 278 278 279 280 280 280 278 276 275 279 280 278 278 278 278 281 283 282 283 283 285 290 292 294 294 291
276 277 277 277 278 278 279 279 280 279 280 280 278 278 278 277 277 279 280 282 283 284 285 292 303 299 298
276 275 276 277 278 278 279 280 280 281 281 281 281 280 275 274 275 277 279 281 284 285 286 288 289 291 295
276 276 277 277 276 278 277 277 278 279 282 281 279 278 274 276 279 278 280 280 284 285 285 286 289 292 293
276 275 276 276 276 277 278 278 278 278 278 279 279 278 277 278 278 280 280 281 284 284 286 285 286 290 292
275 275 275 275 275 277 278 278 276 277 277 277 276 274 275 279 283 279 281 281 283 284 285 285 284 287 292
275 275 275 275 276 276 277 277 276 277 277 277 275 273 273 273 278 286 280 281 284 284 285 285 285 287 290

GFSFLT2_sfc_thetae_021.txt.gz
Theta_e
284 285 284 285 286 287 288 287 288 293 294 294 294 294 294 293 294 295 296 297 298 299 300 301 303 303 305
282 284 284 285 285 285 286 288 288 291 292 292 292 292 292 293 293 294 294 295 296 297 298 299 300 302 304
282 284 284 285 285 285 284 284 286 288 289 289 290 290 291 292 292 292 292 293 294 294 296 297 299 301 301
282 283 282 284 283 280 279 282 282 284 286 287 289 290 290 289 290 290 290 291 293 294 294 295 297 298 299
282 281 279 278 277 279 279 280 281 282 282 283 283 282 283 286 287 288 290 291 293 294 295 296 296 297 298
280 278 278 278 279 280 279 278 276 282 280 279 281 280 282 283 287 289 290 290 291 292 294 294 294 295 296
279 278 278 279 281 280 278 278 277 280 280 278 280 279 281 283 287 288 288 289 290 291 291 292 293 294 295
281 281 282 283 281 280 279 279 279 280 280 275 279 277 280 281 286 287 288 289 290 291 292 293 293 294 294
286 286 285 285 283 280 277 276 274 276 278 276 277 276 278 278 281 286 288 289 290 290 290 290 291 292 292
278 279 280 280 283 280 278 274 274 273 277 275 276 276 275 279 280 282 283 287 288 289 289 289 290 288 288
276 277 278 278 278 279 279 277 275 274 278 279 277 277 276 276 279 281 282 283 283 283 287 289 290 290 287
276 276 276 276 277 278 279 279 279 278 280 280 278 277 276 275 275 279 280 281 282 282 283 288 291 292 293
275 275 276 277 278 277 278 279 279 280 282 282 280 277 276 274 275 277 279 281 283 284 285 285 288 292 290
275 276 277 276 276 277 276 277 277 278 281 282 281 278 274 274 276 277 280 279 283 285 285 286 290 292 292
275 275 275 276 275 276 276 277 276 276 276 279 279 277 275 275 275 279 280 281 284 285 285 285 287 291 292
275 275 275 274 274 276 276 276 276 276 276 278 276 275 275 277 283 280 281 281 284 285 286 285 285 289 292
274 275 274 274 275 275 276 277 276 277 277 278 276 274 272 272 278 287 280 282 284 285 286 285 285 286 288

GFSFLT2_sfc_thetae_024.txt.gz
Theta_e
283 284 284 284 285 286 287 287 288 292 292 292 292 293 293 294 294 294 294 295 296 298 299 300 300 301 302
282 283 283 284 284 284 286 286 286 287 290 290 291 291 291 292 292 292 293 294 294 295 296 297 298 299 300
280 282 283 284 284 283 282 281 283 286 288 289 290 290 290 291 291 292 292 291 291 292 293 294 296 297 298
281 282 282 284 281 279 278 280 280 283 286 287 288 288 289 290 289 289 289 289 290 291 292 292 293 294 296
280 280 279 278 277 279 278 279 281 281 280 281 281 282 282 285 286 287 287 288 289 291 292 293 294 295 295
280 278 277 278 278 278 278 278 274 281 279 279 281 280 281 281 286 287 288 289 289 291 292 291 292 293 294
278 277 277 278 280 279 277 277 276 279 279 277 279 278 280 281 285 286 287 288 289 290 290 291 292 292 294
280 280 282 281 280 279 279 278 279 278 279 274 277 276 278 279 284 286 287 287 288 289 290 291 291 292 292
286 285 284 284 283 280 277 275 273 275 278 276 276 276 277 278 279 285 286 287 288 289 290 290 291 292 292
277 278 280 280 283 280 278 274 273 273 277 275 275 276 274 278 278 280 281 285 287 288 289 289 290 288 287
276 277 278 278 279 279 279 277 274 274 278 278 277 277 276 275 277 279 280 281 282 283 287 288 290 289 285
276 276 276 276 277 278 279 278 278 277 279 279 277 278 276 275 273 276 278 280 281 282 283 286 289 290 291
275 275 276 277 277 277 278 278 278 279 280 281 279 279 278 275 273 274 276 279 282 283 284 285 284 285 285
275 276 277 276 276 277 276 276 275 277 280 281 281 279 275 274 274 274 277 278 282 284 285 286 289 290 288
275 274 275 275 275 276 276 276 274 275 277 279 280 280 277 275 273 277 279 281 283 285 285 285 287 290 290
274 274 274 274 274 276 276 276 275 276 277 278 278 277 276 278 281 279 282 281 283 285 286 284 284 287 291
273 274 274 273 274 274 275 276 275 277 278 278 277 276 274 273 278 285 282 284 284 285 285 284 284 285 288

GFSFLT2_sfc_thetae_027.txt.gz
Theta_e
282 283 283 283 284 285 286 286 287 291 291 291 291 291 292 292 293 294 294 295 296 297 297 298 299 299 300
281 281 281 283 283 283 286 288 285 287 289 289 290 291 291 291 291 292 292 293 293 294 295 296 297 298 299
279 282 282 283 283 284 282 281 282 286 288 288 289 290 290 290 291 291 291 292 292 293 293 294 294 295 297
280 281 281 283 282 279 278 280 279 282 285 286 287 288 288 289 288 288 288 289 290 290 291 291 291 293 294
279 280 278 277 276 278 277 279 280 281 279 280 280 281 281 285 285 286 287 288 289 289 290 291 291 292 293
278 277 276 276 277 278 278 276 274 280 278 278 280 279 280 280 285 286 287 288 289 289 290 291 292 292 293
277 276 276 278 280 278 277 277 276 278 279 276 278 277 279 280 285 286 287 287 288 289 289 290 290 291 292
279 280 281 281 280 279 278 278 279 279 279 273 277 276 278 279 284 285 286 287 287 288 289 289 290 291 291
285 285 284 284 283 280 276 275 273 275 278 275 275 276 277 278 280 284 286 287 287 288 288 289 290 290 290
277 278 280 279 283 280 278 274 273 272 276 275 275 276 274 278 279 280 280 284 285 286 287 288 289 287 286
276 277 278 278 278 279 279 277 274 273 277 278 276 275 275 275 278 279 280 280 280 281 285 287 288 288 285
276 276 276 276 277 277 278 278 279 277 278 278 276 275 275 275 274 278 279 280 279 279 281 285 288 289 290
275 274 275 276 277 277 278 278 278 278 279 279 278 278 278 276 275 275 277 278 280 280 283 285 285 284 283
274 275 275 275 275 276 275 275 275 276 280 281 281 280 277 277 276 275 277 276 281 284 285 286 286 286 284
274 273 274 274 274 275 275 275 274 275 276 279 281 281 280 278 275 278 279 282 285 285 285 285 286 287 286
273 273 272 273 273 275 275 274 274 275 276 278 278 277 279 279 281 279 282 284 285 285 286 284 284 287 289
272 272 274 272 274 273 274 275 275 276 278 278 277 276 275 275 280 285 281 284 285 285 285 285 284 285 290

GFSFLT2_sfc_thetae_030.txt.gz
Theta_e
281 282 282 282 283 284 285 285 285 291 292 291 292 291 292 292 293 294 294 295 295 296 298 298 299 300 301
280 281 281 282 283 283 285 286 285 288 289 289 290 291 291 291 291 292 292 293 293 294 295 296 296 297 299
279 281 282 283 283 282 281 281 282 285 287 288 289 289 290 290 290 291 290 291 291 292 292 293 294 296 297
280 281 282 281 280 277 277 279 279 282 284 286 287 287 288 288 288 288 288 289 290 290 291 291 291 292 294
279 278 277 277 276 277 277 278 280 280 279 280 280 280 281 284 285 286 286 287 288 289 290 291 291 292 293
277 276 276 276 277 277 278 276 274 280 278 278 280 279 280 280 284 286 287 288 289 289 290 290 291 291 292
277 276 276 278 279 278 277 277 276 279 279 276 278 277 279 280 285 286 287 287 288 288 289 290 290 291 291
279 280 282 281 280 279 279 278 279 278 279 274 277 276 278 279 284 285 286 287 287 288 289 289 289 290 291
285 285 284 284 283 280 276 275 273 275 278 275 275 275 277 277 279 284 286 287 287 288 289 289 289 290 289
277 278 279 279 283 279 277 274 273 272 277 275 275 276 274 277 278 280 280 284 286 287 288 289 289 287 286
275 276 277 277 277 278 278 276 274 273 277 278 275 275 275 274 277 279 280 281 281 282 285 287 288 288 284
275 275 275 275 276 276 277 277 278 277 278 278 275 275 274 274 274 278 280 281 281 281 281 284 287 289 290
274 274 274 275 275 276 276 277 277 278 279 278 278 277 277 276 276 277 279 280 281 280 282 283 285 286 284
273 274 274 274 274 275 274 275 274 275 279 280 281 280 278 278 278 277 280 278 282 285 286 286 287 287 285
273 273 273 273 273 274 274 274 273 274 275 279 281 281 281 279 278 280 280 283 285 285 285 285 286 286 285
273 272 271 272 272 274 273 273 273 275 276 278 278 278 279 279 283 279 283 283 285 286 286 284 284 287 286
272 271 272 272 272 272 272 273 274 275 278 278 277 277 275 273 278 285 281 284 284 284 285 284 283 288 287

GFSFLT2_sfc_thetae_033.txt.gz
Theta_e
285 286 285 285 286 287 288 287 289 290 291 291 291 291 292 292 293 294 294 295 295 296 297 298 299 299 300
283 284 284 285 286 286 287 287 286 287 289 289 290 291 291 291 291 292 292 293 293 294 295 295 296 297 298
282 284 285 286 285 284 283 283 284 286 288 288 289 290 290 290 291 291 291 291 291 291 292 293 294 295 296
282 283 283 284 284 281 281 283 283 284 286 287 288 288 288 289 289 288 288 289 290 290 291 291 291 293 294
282 281 281 281 279 281 280 281 283 284 283 284 284 284 285 286 286 286 287 288 289 289 290 291 291 291 292
281 279 279 280 281 280 280 279 277 283 282 281 284 283 284 284 285 286 287 288 289 289 290 290 291 291 292
280 279 279 281 281 281 280 280 279 282 281 278 282 281 283 283 285 286 287 287 288 289 289 290 290 291 291
282 282 283 284 282 282 281 281 281 282 282 276 281 280 282 283 285 286 287 287 288 289 289 290 290 290 291
286 286 285 284 284 281 279 277 276 278 281 279 279 279 280 281 284 285 286 287 288 288 289 290 290 291 290
280 280 281 281 283 281 279 275 276 275 280 277 278 279 276 281 283 283 284 286 287 288 288 289 290 288 288
278 278 279 280 280 280 279 278 275 275 280 279 278 278 277 278 281 283 283 284 285 286 287 288 289 289 285
277 277 278 278 278 279 279 279 279 277 279 279 277 277 277 277 277 282 284 285 285 285 285 287 289 290 291
276 277 277 278 277 278 279 279 279 280 280 280 279 279 279 278 279 281 282 284 285 285 286 286 286 286 285
276 277 277 277 276 278 276 277 276 277 281 282 282 282 281 281 281 281 282 281 285 286 286 286 287 288 287
275 275 275 276 275 277 276 276 274 275 277 281 284 284 283 282 280 283 283 283 285 285 285 285 287 288 286
275 274 274 274 274 276 276 275 274 276 277 280 281 281 282 285 286 283 284 284 285 285 286 284 285 286 288
274 274 274 275 274 274 274 275 275 276 279 281 280 280 277 277 284 286 283 283 284 284 285 284 284 287 288

GFSFLT2_sfc_thetae_036.txt.gz
Theta_e
287 288 287 287 288 289 290 289 289 291 291 291 291 291 292 293 293 294 294 295 296 297 297 298 299 299 299
285 286 286 288 288 287 288 288 287 288 290 290 291 291 291 292 292 293 293 293 294 295 295 296 297 297 298
284 287 288 287 287 287 286 286 287 288 290 290 290 291 291 291 291 292 292 292 292 292 293 293 294 295 296
285 286 286 287 286 284 283 285 285 286 288 288 289 289 290 290 290 290 290 290 290 291 291 291 292 293 294
284 285 284 284 282 283 283 284 285 285 286 286 287 287 288 289 288 288 289 289 290 290 291 291 291 292 293
283 282 281 282 283 283 282 282 279 286 284 283 286 285 286 287 288 288 289 289 289 290 290 291 291 291 292
282 281 281 283 283 283 282 281 281 284 283 281 285 284 286 286 287 288 289 289 289 290 290 290 291 291 292
283 283 285 285 285 283 282 282 283 284 284 279 283 282 285 286 287 288 288 289 289 290 290 291 291 291 292
286 287 287 286 285 282 281 279 278 280 283 281 282 282 283 283 286 288 288 289 289 290 290 291 291 291 290
284 283 284 283 285 283 282 278 278 277 282 279 280 280 278 283 286 286 287 288 289 290 291 291 291 289 288
281 281 282 282 283 283 282 280 278 277 281 281 279 279 279 279 283 285 286 287 288 289 290 290 291 290 287
279 279 280 281 281 282 281 281 281 279 281 280 278 279 278 278 278 284 285 287 288 287 287 290 292 292 292
278 279 280 281 280 280 281 282 281 281 282 282 281 281 280 279 279 282 283 285 287 287 287 287 286 287 285
278 279 280 280 279 281 279 278 278 280 283 283 283 282 281 282 282 280 284 282 287 287 287 287 288 288 288
278 277 278 278 278 279 279 279 277 277 278 282 284 285 285 283 281 284 285 285 286 286 285 285 287 288 288
277 277 277 276 277 279 279 277 277 277 278 281 282 282 283 285 288 285 285 284 285 286 287 284 285 287 290
277 277 277 277 277 277 277 278 278 279 280 282 282 281 278 277 284 289 284 285 285 285 286 285 284 286 288

GFSFLT2_sfc_thetae_039.txt.gz
Theta_e
287 288 287 287 288 289 290 288 288 292 292 292 293 293 294 294 294 294 295 296 296 297 298 299 299 299 300
285 285 286 287 287 287 288 289 287 290 292 292 292 293 293 293 293 293 294 294 294 295 296 297 297 298 299
283 285 286 287 287 287 286 286 287 289 291 291 291 292 292 292 293 293 293 293 293 293 294 294 295 296 297
283 283 284 286 286 283 282 284 284 286 288 289 290 291 291 291 291 291 291 291 292 292 293 292 293 293 294
282 283 283 282 281 282 281 282 283 285 283 284 285 285 286 288 288 289 290 291 291 292 292 293 293 293 294
282 281 281 281 282 281 280 280 279 284 282 281 284 283 284 285 289 290 290 291 291 292 292 292 293 293 293
282 281 281 281 281 280 281 280 279 281 281 279 283 281 284 285 288 290 290 290 291 292 292 292 293 293 293
283 283 283 284 284 284 282 281 281 282 283 277 281 280 283 284 288 289 289 290 291 291 292 292 292 293 294
286 287 288 288 286 283 279 278 277 278 281 279 279 280 280 281 283 288 289 290 290 291 292 292 292 293 292
283 283 284 283 286 283 281 278 277 275 280 278 278 278 276 280 282 282 283 287 289 290 291 292 292 290 289
280 280 281 281 282 282 282 280 277 276 280 279 277 277 277 276 279 281 282 283 284 285 290 291 292 291 288
279 278 279 279 280 281 281 280 280 279 280 280 277 277 276 275 275 280 281 283 284 284 285 289 291 292 292
277 278 279 280 280 280 281 281 281 280 280 280 279 279 279 277 277 278 281 283 284 284 286 286 286 287 286
277 278 279 278 278 279 278 278 277 277 280 280 281 281 279 280 280 280 282 280 284 286 286 286 287 288 288
278 277 277 277 277 278 277 277 276 276 277 279 281 282 282 282 280 281 281 283 285 285 285 284 285 287 288
277 276 276 276 276 277 278 276 276 276 277 279 280 280 281 283 286 282 282 282 284 285 285 283 283 286 288
276 276 276 276 276 275 276 276 276 277 278 279 280 279 277 276 281 287 282 282 282 283 285 284 283 285 287

GFSFLT2_sfc_thetae_042.txt.gz
Theta_e
283 284 282 283 286 286 287 286 287 293 293 293 293 294 294 295 295 295 296 296 297 298 299 300 300 300 300
282 283 282 283 283 284 286 288 287 290 292 292 293 293 293 294 294 294 294 295 295 296 296 297 298 298 299
280 283 283 283 283 285 285 284 285 289 290 291 291 292 293 292 293 293 293 293 294 294 294 295 296 296 297
280 280 282 283 283 281 280 282 281 285 286 288 290 290 291 291 291 291 291 291 292 293 293 293 294 295 296
280 281 281 281 280 281 279 280 281 282 282 282 283 283 283 287 288 289 290 291 292 293 293 294 294 294 295
281 280 280 280 280 279 278 277 277 283 279 280 282 281 282 283 288 290 290 291 291 292 293 293 294 294 295
281 280 279 280 278 278 279 280 280 281 280 278 281 280 282 283 287 289 290 290 291 291 292 293 293 294 294
282 281 281 282 283 284 282 280 280 281 280 276 280 279 281 282 287 288 289 290 291 291 292 292 292 293 294
286 287 287 288 286 282 278 277 276 278 280 278 278 278 279 279 281 286 288 289 288 289 290 291 292 293 292
281 281 282 280 285 280 279 276 276 275 277 276 277 277 274 277 278 280 281 285 287 288 289 290 291 289 289
278 278 279 279 279 280 281 279 276 275 279 279 277 276 276 275 277 279 280 281 281 283 287 289 290 290 288
277 277 277 277 278 279 279 279 279 279 280 280 277 276 275 274 274 278 280 281 281 281 283 286 289 291 292
276 276 277 277 278 277 278 278 277 279 280 279 278 277 277 276 275 277 279 280 282 282 282 284 285 287 285
276 277 278 277 276 276 276 276 276 276 279 279 278 279 278 278 278 278 280 278 282 283 284 286 286 286 286
276 276 276 275 275 276 276 276 275 275 276 278 280 281 280 279 278 279 280 281 282 282 283 283 284 286 286
276 275 275 275 274 275 276 274 274 275 276 277 278 278 279 280 285 281 281 280 281 282 283 281 283 286 287
275 274 275 275 276 274 274 275 274 275 275 277 278 277 275 274 281 287 281 281 281 281 283 283 282 284 286

GFSFLT2_sfc_thetae_045.txt.gz
Theta_e
281 282 281 281 283 284 285 285 286 292 293 293 293 294 294 294 294 295 296 296 297 298 299 300 300 300 301
281 281 280 281 282 282 284 287 286 290 291 292 292 292 293 293 294 294 294 295 295 296 296 297 298 298 299
280 282 281 282 282 283 284 284 285 288 289 290 291 291 292 292 292 292 292 292 293 293 294 295 295 297 297
280 279 281 282 282 281 280 282 281 283 286 287 289 290 290 290 290 290 290 291 292 292 293 294 294 295 297
279 279 280 280 279 280 279 280 280 281 281 281 282 282 283 286 286 288 289 291 292 292 293 294 294 295 296
280 279 279 279 279 279 278 277 276 282 281 280 282 280 281 282 287 289 289 290 291 291 292 293 293 294 295
280 279 279 279 279 277 278 279 280 281 280 278 281 279 281 282 286 287 289 289 290 290 291 292 293 293 294
281 281 281 282 283 283 281 279 279 280 280 276 279 278 280 280 285 287 288 288 289 290 290 291 291 292 293
287 287 287 287 285 281 277 276 275 276 279 277 277 276 278 278 280 285 286 287 287 288 289 290 290 291 290
279 280 281 280 284 280 278 275 275 275 277 276 276 276 274 275 277 279 279 283 285 287 288 288 289 287 287
277 277 278 278 279 279 279 278 276 275 279 279 277 276 276 275 277 278 279 279 280 281 285 287 288 288 286
276 276 276 277 277 278 278 278 278 277 278 278 276 276 275 274 273 277 278 279 279 279 280 284 287 289 289
275 275 276 276 277 277 277 276 276 277 279 278 277 276 276 274 274 275 277 278 280 280 279 282 282 284 283
275 276 276 276 275 276 274 275 274 275 278 277 277 277 276 276 277 276 278 277 280 281 282 283 284 284 285
274 275 275 275 275 276 275 274 273 273 273 276 278 278 278 278 276 277 278 278 280 282 282 281 283 284 284
274 274 274 274 274 275 276 274 273 273 274 275 275 275 276 278 282 278 279 280 281 281 282 280 280 283 285
274 274 274 273 275 274 274 274 273 274 274 275 276 276 274 273 280 286 281 281 281 281 281 281 281 283 285

GFSFLT2_sfc_thetae_048.txt.gz
Theta_e
279 281 280 280 282 282 284 283 284 290 292 293 293 293 294 294 294 295 295 296 298 298 299 300 300 301 301
278 279 279 280 280 281 283 285 285 289 291 291 292 292 292 293 293 294 294 294 295 295 296 297 297 298 299
279 279 279 280 281 281 282 283 285 288 289 289 290 291 291 292 293 292 292 292 293 293 293 294 295 296 298
279 277 278 280 280 279 279 281 280 283 285 287 289 289 290 290 290 289 289 290 291 292 292 293 294 295 296
278 274 277 279 278 279 278 279 280 281 281 281 281 281 283 286 286 287 288 290 291 292 292 293 293 294 295
272 278 278 278 279 278 278 276 276 281 279 280 281 280 281 281 286 288 289 290 290 291 291 292 292 293 294
280 279 278 279 279 277 278 278 278 280 279 277 280 278 280 282 286 287 288 289 289 290 290 291 292 293 293
281 281 281 281 283 282 280 278 279 279 279 274 278 277 279 280 285 286 287 288 289 289 290 290 290 290 291
287 287 287 287 285 280 276 275 274 276 278 276 276 276 278 278 280 285 286 287 287 288 288 289 289 289 289
278 279 280 279 284 279 276 274 274 273 276 273 276 276 273 275 277 278 279 283 285 286 287 288 288 285 285
276 276 277 277 278 278 278 276 275 274 278 278 276 275 275 274 275 278 278 279 279 280 284 286 287 287 284
275 275 275 276 276 277 278 277 277 277 278 278 275 274 274 273 273 276 277 278 278 278 278 282 286 287 288
274 275 275 275 276 276 277 276 275 277 278 277 276 276 275 273 273 275 276 277 279 278 279 278 281 282 282
274 275 276 276 275 275 274 275 274 274 277 277 276 275 274 275 275 275 276 276 279 279 279 280 282 284 283
274 275 275 275 274 275 274 274 273 273 274 275 276 276 276 276 274 276 276 277 278 278 280 280 281 282 283
274 274 273 273 273 274 275 274 273 273 273 274 274 274 275 277 281 276 277 278 279 280 281 280 280 283 284
272 272 273 273 275 273 273 273 273 273 274 275 275 275 273 272 279 285 280 281 281 280 281 280 280 282 284

GFSFLT2_sfc_thetae_051.txt.gz
Theta_e
279 280 279 280 282 282 283 282 283 290 291 292 292 293 294 294 294 295 295 296 297 298 299 300 300 300 301
277 278 279 280 280 280 283 285 284 288 290 291 291 292 292 293 293 293 294 295 296 295 296 297 298 298 299
277 278 279 279 279 280 280 281 283 287 288 289 290 291 291 292 292 292 292 292 293 293 293 294 295 296 297
279 277 278 279 279 279 279 280 280 282 285 287 288 289 290 290 290 290 290 290 291 292 292 293 293 294 296
277 275 276 278 278 279 278 279 279 280 280 280 280 281 282 286 286 287 288 289 291 291 292 293 293 293 294
273 276 279 278 279 278 278 276 276 279 278 279 281 280 280 281 286 288 289 290 290 291 291 292 292 292 293
279 278 278 279 279 278 278 278 278 280 279 277 279 278 280 281 286 287 288 289 289 290 290 291 291 292 292
280 281 281 282 282 281 280 278 278 279 278 274 277 277 279 280 285 286 288 288 289 289 290 290 290 290 291
286 287 287 287 285 280 276 275 274 275 278 276 275 276 278 278 280 285 286 287 288 288 288 289 289 290 288
277 278 280 278 283 279 275 272 274 273 276 273 275 275 273 275 275 278 279 283 285 286 287 288 288 285 284
276 276 277 277 278 278 278 273 274 274 278 278 275 275 275 274 275 277 278 278 278 280 283 285 286 286 283
275 275 275 275 276 276 277 277 277 276 277 278 274 272 273 272 272 276 277 277 277 277 277 281 284 286 288
274 274 275 275 275 275 275 276 275 276 277 276 276 275 275 273 272 274 275 277 278 277 277 277 277 278 279
274 275 275 275 275 275 274 274 274 274 276 276 275 275 274 274 274 274 275 274 276 277 278 279 280 281 281
274 274 275 274 274 274 273 273 272 272 273 275 276 276 275 275 273 274 275 275 277 277 278 278 280 281 282
273 273 272 272 272 274 275 273 272 272 273 274 274 274 275 277 279 274 275 276 277 279 280 279 279 282 284
271 271 272 272 275 273 273 273 273 273 274 275 275 275 273 272 278 284 279 279 280 280 281 280 279 281 282

GFSFLT2_sfc_thetae_054.txt.gz
Theta_e
280 281 280 280 281 281 282 281 282 289 291 292 292 293 293 294 294 295 295 296 297 298 299 300 301 301 301
279 278 278 280 279 279 282 284 283 287 290 291 291 292 292 293 293 293 294 295 295 295 296 297 298 298 299
278 279 279 279 279 279 279 281 283 287 288 289 290 290 291 292 292 292 292 293 293 293 294 294 295 296 297
278 277 278 279 278 278 278 280 280 282 285 286 288 289 290 290 290 290 290 290 291 292 292 292 293 294 295
277 275 276 278 278 280 278 279 279 280 280 280 280 280 282 286 286 287 288 289 290 292 292 293 293 294 294
272 277 278 278 277 278 278 277 276 279 277 279 280 280 281 281 285 287 289 290 290 291 291 292 292 292 293
279 278 277 279 277 276 278 278 278 280 278 276 279 278 280 281 286 287 288 289 290 290 290 291 291 292 292
280 280 280 281 280 280 280 278 278 279 278 274 277 277 279 279 285 287 288 288 289 289 290 290 290 291 291
286 286 286 286 285 280 276 274 273 275 278 275 275 275 277 278 280 285 286 287 288 288 289 289 289 289 288
277 278 279 278 283 278 274 271 273 273 275 272 272 275 271 275 275 278 280 283 285 286 287 288 288 285 284
275 275 276 276 277 277 277 271 274 273 277 278 271 274 275 273 275 277 277 278 278 279 283 284 285 285 282
274 274 274 275 275 276 276 276 276 276 277 277 274 271 273 272 272 276 276 277 277 277 277 281 284 285 287
273 274 273 274 274 274 275 275 273 275 276 275 275 275 274 272 272 274 275 276 277 276 277 277 277 278 277
273 274 274 271 274 274 272 273 272 273 275 275 274 274 273 274 274 273 275 274 276 277 278 278 279 280 280
272 272 273 273 273 273 272 272 271 272 273 275 276 277 276 276 274 275 275 275 276 276 277 277 279 280 280
272 271 271 271 272 273 275 273 271 272 273 274 275 275 276 278 280 274 275 275 277 278 279 277 279 282 283
270 270 271 271 274 273 272 273 274 274 274 275 276 276 274 273 279 285 279 279 280 280 280 280 279 281 282

GFSFLT2_sfc_thetae_057.txt.gz
Theta_e
285 285 285 287 288 288 288 288 289 290 291 292 292 293 293 294 295 295 296 296 297 298 299 300 301 301 302
284 284 285 286 286 286 286 287 288 289 290 291 292 292 292 293 293 294 294 295 295 296 296 297 298 299 299
283 285 285 285 285 286 286 286 286 288 289 289 290 291 291 292 292 293 293 293 293 294 294 295 295 296 298
283 284 284 286 284 283 283 285 284 286 287 288 289 289 290 290 291 290 290 291 292 292 293 293 293 294 295
283 283 283 283 283 284 282 283 284 285 285 285 285 285 286 287 287 288 288 289 291 292 292 293 293 294 295
283 282 283 283 283 282 282 280 278 286 283 283 285 284 285 286 287 288 289 290 291 291 292 292 292 293 293
283 283 282 283 283 281 282 281 280 284 283 281 284 282 284 284 287 288 288 289 290 290 291 291 291 292 292
285 284 285 285 284 284 283 282 282 283 283 277 283 282 284 284 286 287 288 289 289 290 290 290 291 291 291
286 286 286 286 285 283 281 279 277 279 282 279 280 281 282 282 284 286 287 287 288 288 289 289 289 290 289
282 282 282 281 283 282 281 277 276 276 282 278 279 279 277 282 283 283 283 285 285 286 287 287 288 286 286
279 280 280 281 281 281 281 279 276 276 281 280 279 278 277 277 280 282 282 282 283 283 284 285 285 285 284
278 279 279 279 280 280 280 280 280 278 280 279 276 276 275 275 275 280 282 283 283 282 283 283 284 285 286
277 278 278 279 278 278 279 279 278 278 279 279 277 277 276 275 275 277 278 281 282 281 282 281 282 282 281
277 277 278 278 278 279 277 278 276 278 281 280 278 277 276 277 277 276 279 277 281 282 282 282 283 283 283
276 276 276 277 277 278 277 276 275 276 277 280 281 280 279 278 276 278 279 279 282 281 281 280 282 283 284
275 275 274 275 275 277 279 277 276 276 277 279 280 279 280 282 282 278 280 280 282 283 282 279 280 285 286
274 274 274 274 276 277 277 277 277 278 279 280 280 280 277 276 282 287 282 283 283 282 283 283 282 284 286

GFSFLT2_sfc_thetae_060.txt.gz
Theta_e
287 287 286 287 288 290 291 290 291 292 293 293 293 293 294 295 295 296 296 297 298 298 299 300 301 302 302
284 285 285 288 288 287 288 289 290 291 292 292 292 293 293 293 294 294 295 295 296 296 297 298 298 299 300
285 287 287 287 287 288 289 289 289 290 290 291 291 292 292 293 293 293 293 294 294 294 295 295 296 297 298
285 286 287 288 288 285 286 287 286 288 289 290 290 290 291 291 291 291 291 291 292 293 293 293 294 294 296
285 286 286 286 285 286 284 285 286 287 287 288 288 288 289 290 290 290 290 290 291 292 293 293 293 294 295
286 284 285 285 286 285 284 282 280 288 286 285 288 287 288 289 290 290 290 291 291 291 292 292 292 293 294
285 285 284 285 285 283 283 282 281 285 286 283 287 285 288 288 289 290 290 290 290 291 291 291 292 292 292
286 286 286 286 285 285 285 284 285 286 287 282 285 284 286 287 289 289 289 290 290 290 290 291 291 291 292
286 286 287 287 287 285 283 282 281 282 285 283 284 283 285 286 287 288 288 288 289 289 290 289 290 290 289
285 285 285 285 284 284 284 280 279 279 285 281 282 281 279 284 285 286 286 287 288 288 288 288 288 286 286
283 283 284 284 284 285 284 282 279 278 284 283 281 281 279 279 283 285 286 285 286 287 287 287 287 287 284
282 282 283 283 284 284 283 283 283 281 283 283 279 279 278 277 278 283 285 286 286 284 285 286 287 287 288
281 282 283 283 282 282 284 284 283 283 282 282 280 279 278 276 277 279 280 283 285 284 285 285 285 285 282
281 281 282 282 282 283 281 281 279 281 286 284 282 280 277 278 279 278 281 279 283 284 285 285 284 284 283
280 279 280 280 281 282 281 280 279 279 280 283 285 284 282 281 278 279 280 282 284 284 283 282 284 285 285
279 279 278 278 279 281 282 281 280 280 280 282 282 281 283 285 285 281 282 282 284 285 285 282 283 286 287
278 278 278 278 278 280 281 281 281 281 282 283 282 281 279 278 284 288 283 285 284 283 284 284 283 285 287

GFSFLT2_sfc_thetae_063.txt.gz
Theta_e
288 288 287 287 289 289 290 290 290 293 294 294 294 295 295 295 296 296 297 297 298 299 300 300 300 301 302
285 286 286 287 288 288 289 290 289 291 293 293 293 294 294 295 295 295 295 295 296 297 298 298 299 299 300
285 287 287 288 287 288 288 289 289 291 292 292 292 293 293 294 294 294 294 294 295 295 295 296 296 297 298
285 286 286 287 287 285 285 287 286 288 290 291 292 292 293 293 293 293 292 293 293 293 293 294 294 295 296
285 285 285 285 284 285 283 284 285 286 286 286 287 287 288 291 291 291 292 292 292 293 293 294 294 294 295
286 284 284 284 285 284 283 281 280 286 284 283 287 285 286 287 291 292 292 292 292 292 292 293 293 293 293
284 283 283 284 283 282 282 282 281 284 284 282 285 284 286 287 291 291 291 291 292 292 292 292 292 293 293
285 285 285 285 285 285 284 284 284 284 285 280 284 283 285 286 290 290 291 291 291 291 291 291 291 292 292
286 287 287 288 287 284 281 280 280 281 284 281 282 282 283 283 284 289 290 290 290 290 291 291 291 291 289
283 285 286 284 286 283 282 280 279 278 282 279 280 280 278 281 282 283 283 288 289 290 290 290 290 287 285
282 282 282 282 283 283 283 282 279 278 282 282 278 279 279 279 280 281 282 283 284 285 288 288 288 288 284
280 280 281 282 284 284 283 283 283 281 282 282 279 278 277 276 275 279 280 281 282 282 282 286 288 288 288
280 281 282 283 282 282 283 284 283 283 283 281 280 279 278 276 276 277 278 279 281 280 282 284 283 284 283
279 280 281 281 281 282 281 280 279 280 283 284 284 282 279 278 278 277 279 277 280 280 282 283 284 284 283
280 279 279 279 279 281 280 280 279 279 280 282 284 284 283 280 278 280 280 280 282 282 282 281 284 285 285
278 278 278 277 277 279 279 279 279 280 280 282 282 282 281 282 285 280 281 282 283 283 284 282 282 284 286
278 278 277 277 277 277 278 279 279 280 280 282 282 280 277 276 281 288 281 281 281 281 282 282 281 283 285

GFSFLT2_sfc_thetae_066.txt.gz
Theta_e
287 288 288 289 290 290 291 290 289 294 294 295 295 295 296 296 296 297 297 298 298 299 300 300 301 301 302
285 285 286 287 288 287 288 289 287 291 293 294 294 294 294 295 295 295 296 296 296 297 297 298 298 299 300
285 286 287 287 286 286 285 285 288 291 292 292 292 293 294 294 294 295 295 295 295 295 295 296 296 297 298
285 285 285 285 284 281 281 283 283 286 288 290 291 292 293 293 293 293 293 293 294 294 294 294 294 295 296
283 281 282 282 281 282 280 280 281 282 282 282 282 284 285 289 290 291 292 293 293 294 294 294 294 294 295
279 281 281 281 281 281 279 276 274 281 280 281 282 282 283 283 290 292 292 293 293 293 293 293 294 293 294
281 280 279 281 279 276 278 276 277 281 280 280 281 281 282 286 290 291 292 292 292 293 293 293 293 293 293
281 281 281 282 282 280 279 280 280 281 280 276 279 280 282 282 289 290 290 291 291 292 292 292 292 292 292
286 286 287 287 287 279 275 274 275 277 280 277 277 278 281 281 282 288 289 289 289 290 291 291 291 291 290
280 281 283 282 286 281 277 269 278 276 278 274 275 276 275 277 278 282 280 286 288 288 289 290 290 287 286
278 278 278 279 280 280 280 272 277 279 282 282 275 279 278 277 276 277 280 279 280 281 285 287 288 288 285
277 276 276 277 281 283 283 282 282 281 282 282 278 278 277 276 276 277 278 279 278 277 279 283 287 288 289
275 278 281 282 282 281 282 282 282 283 283 283 281 280 279 277 277 278 279 278 280 277 275 279 279 281 281
274 275 275 280 280 281 279 280 279 280 280 283 282 281 280 280 279 277 278 277 280 280 281 281 281 282 283
278 278 278 279 279 280 279 279 278 277 279 282 284 284 283 280 279 280 280 280 281 281 282 281 282 283 284
278 277 277 277 277 278 278 278 277 277 279 280 281 281 281 281 285 281 281 280 281 281 281 280 280 283 284
278 277 277 277 277 276 277 277 276 277 279 280 280 279 277 275 280 287 280 281 281 281 281 280 281 283 284

GFSFLT2_sfc_thetae_069.txt.gz
Theta_e
288 288 288 289 290 292 292 292 291 295 296 296 295 296 296 296 296 297 297 298 298 299 299 300 300 301 301
285 285 287 288 289 289 290 290 288 291 294 294 295 295 294 294 295 295 296 296 296 297 297 298 299 299 300
285 287 287 287 287 287 287 286 288 291 293 292 292 293 293 294 295 295 294 295 295 295 296 296 297 297 298
285 285 285 285 283 281 281 282 282 286 287 289 290 291 291 292 292 292 292 292 293 294 294 294 295 295 296
284 283 282 281 280 281 280 280 280 281 281 281 282 282 284 288 289 290 291 293 293 294 294 295 295 295 295
279 281 280 279 280 280 277 277 275 281 280 281 282 281 282 282 289 291 292 292 293 293 294 294 294 294 294
281 279 279 280 277 275 278 276 277 280 280 278 280 279 281 284 289 290 291 292 292 292 293 293 293 293 293
281 280 280 281 281 278 277 278 279 280 279 272 278 279 280 281 287 289 289 290 290 291 291 291 292 292 292
286 286 287 287 286 278 275 272 273 277 279 276 276 277 278 279 280 287 288 288 288 289 289 290 290 291 290
279 280 281 281 286 281 276 268 269 270 277 273 274 279 273 276 277 280 279 285 286 286 287 287 288 286 286
277 277 278 279 280 280 279 269 269 278 281 281 275 279 278 278 279 276 278 279 279 280 284 286 286 287 284
277 276 276 276 281 281 282 283 282 281 282 282 278 278 277 276 276 277 277 280 279 277 276 282 286 287 288
274 274 279 277 277 281 282 282 282 282 283 283 281 280 279 277 277 278 278 275 278 278 276 277 278 279 278
273 274 275 280 279 280 279 279 279 279 279 276 281 281 278 279 279 279 280 278 281 281 280 280 281 282 281
276 278 278 278 278 279 278 278 277 277 277 275 282 283 282 281 279 280 280 280 281 280 281 280 282 282 282
278 278 277 277 277 278 278 277 276 276 277 278 279 280 279 280 284 280 281 279 280 280 280 279 280 282 282
277 277 277 277 277 276 277 277 276 276 277 278 276 277 276 274 279 285 279 279 280 280 281 280 279 281 282

GFSFLT2_sfc_thetae_072.txt.gz
Theta_e
289 288 289 290 292 292 293 293 293 296 298 298 299 297 297 297 297 297 297 298 298 299 299 300 300 301 301
287 286 287 289 290 290 291 292 290 292 295 295 295 296 296 295 295 296 296 296 296 297 297 298 299 299 300
286 286 286 288 287 288 288 288 288 291 293 294 294 293 293 294 295 295 295 295 295 295 296 296 297 298 298
285 285 285 286 285 284 283 283 282 285 287 289 290 291 292 292 293 293 292 292 293 294 294 295 295 296 297
284 284 284 282 281 281 280 280 280 280 281 281 281 281 282 287 289 290 291 292 293 294 295 295 295 295 296
282 279 278 278 279 279 275 275 274 279 279 279 281 280 281 281 288 290 292 292 293 293 294 294 294 294 294
280 278 278 279 276 275 277 274 274 279 279 277 279 279 280 283 288 290 291 291 292 292 292 292 293 293 294
280 279 279 280 280 277 276 277 278 279 279 272 277 278 279 280 286 288 289 290 290 290 290 291 291 291 292
286 286 287 287 285 278 275 272 273 277 278 276 276 276 278 278 280 286 287 288 288 288 289 289 289 290 289
279 279 280 280 285 280 276 267 268 270 277 272 273 277 272 276 276 280 279 285 287 287 288 288 288 285 284
277 277 278 279 279 279 278 270 267 276 281 281 277 279 278 277 276 277 277 279 279 280 285 286 287 286 284
277 275 276 276 280 281 282 282 282 281 282 282 278 278 277 277 275 275 275 278 277 275 274 281 285 287 288
274 273 273 272 274 280 282 282 282 282 283 282 281 280 279 277 276 278 278 275 278 277 274 275 276 278 278
272 273 275 279 279 280 278 279 278 278 282 282 275 276 278 278 278 278 280 278 275 279 280 279 280 281 280
278 278 278 279 278 279 278 277 276 276 277 279 278 277 279 279 278 279 279 280 281 280 279 279 281 281 281
278 278 277 277 277 277 278 276 275 273 274 275 278 273 275 277 283 279 280 280 280 280 279 278 279 282 283
277 277 277 277 277 276 276 273 274 273 273 275 269 270 272 272 276 284 277 273 276 278 280 279 279 281 282

GFSFLT2_sfc_thetae_075.txt.gz
Theta_e
289 289 290 291 293 293 295 294 294 297 299 300 300 300 300 299 298 298 298 299 299 300 300 301 301 301 302
287 287 287 290 291 291 292 293 292 293 296 297 297 297 297 297 297 296 296 297 297 297 298 299 299 300 300
286 287 286 286 287 289 289 289 291 291 293 294 295 295 294 294 294 295 296 295 295 296 296 297 297 298 299
286 285 286 286 286 284 284 284 284 285 287 288 290 291 292 292 293 293 293 293 293 294 294 295 295 296 297
284 284 283 283 281 282 281 279 279 279 280 280 280 281 282 287 288 290 291 292 293 294 295 295 295 295 296
277 278 277 277 278 278 275 274 273 279 278 278 280 280 280 281 287 290 291 292 293 293 294 294 294 294 294
278 277 277 278 274 273 277 273 274 278 279 277 278 278 280 282 287 289 290 291 292 292 292 292 292 293 293
280 279 279 279 279 276 276 277 278 279 278 271 277 278 279 279 286 288 290 289 289 289 290 290 291 291 291
286 287 287 288 284 278 279 272 273 276 278 275 275 276 277 277 280 286 287 288 288 288 289 289 289 290 289
278 279 280 281 285 280 276 266 268 269 276 272 273 275 271 276 276 279 279 285 287 287 288 288 289 286 283
276 277 278 278 279 279 278 269 266 273 279 280 273 278 277 274 276 276 276 278 279 280 285 286 287 286 281
276 275 275 275 279 282 282 282 282 281 282 281 278 278 276 277 274 274 273 277 276 276 274 281 285 287 288
273 272 273 271 272 279 282 282 281 282 283 282 281 280 279 277 276 277 279 274 279 275 273 274 276 276 278
272 273 274 279 279 280 278 278 277 277 280 282 281 279 276 276 277 277 278 277 275 277 277 279 279 280 280
278 278 279 279 278 279 278 277 276 271 269 273 280 279 277 276 276 278 278 279 280 281 278 278 280 280 281
278 278 277 277 276 276 277 276 275 270 269 268 269 276 271 275 281 276 278 278 278 278 278 278 278 280 282
277 277 277 276 277 275 274 270 272 269 269 268 265 268 271 270 275 283 276 276 272 276 278 278 278 279 281

GFSFLT2_sfc_thetae_078.txt.gz
Theta_e
289 289 290 292 293 294 295 294 294 298 300 300 300 301 301 300 299 299 299 300 301 301 301 301 302 302 302
287 287 287 290 291 291 293 293 292 294 296 297 298 298 297 298 298 297 297 297 297 298 298 299 299 300 301
286 287 287 288 288 289 289 289 291 292 293 294 295 295 296 295 294 295 295 296 296 295 296 297 297 298 299
286 285 286 286 286 285 285 285 285 286 287 289 290 290 291 292 293 293 293 294 294 294 294 295 295 296 297
279 279 280 280 279 280 279 279 279 279 280 280 280 281 282 286 288 290 291 291 292 293 295 295 295 295 296
273 277 277 276 277 277 274 273 273 278 278 278 279 279 280 281 287 289 291 292 293 293 294 294 294 294 295
278 277 277 278 273 273 276 272 274 278 278 276 278 278 280 282 287 289 290 291 292 292 292 292 292 293 293
279 279 279 279 279 276 276 277 278 278 278 271 276 278 279 279 286 289 290 290 289 289 290 290 291 291 291
286 287 287 287 284 279 276 272 272 276 277 275 275 275 277 277 280 287 287 287 288 288 289 290 290 290 288
278 279 280 282 285 279 275 266 267 270 276 275 274 274 270 275 276 279 279 284 287 287 288 288 289 285 283
276 277 278 278 279 279 277 269 273 275 279 280 277 279 277 273 275 276 276 278 279 280 284 286 287 286 280
276 274 274 274 275 278 281 281 281 279 282 281 278 277 276 276 275 275 274 276 274 273 273 281 285 287 288
273 272 272 271 271 278 281 282 281 281 282 282 280 279 278 277 277 278 278 277 279 276 273 273 275 277 278
272 273 274 278 279 280 278 278 277 277 276 278 279 280 278 278 276 275 278 276 273 279 280 281 279 280 280
273 275 279 279 279 279 277 277 276 270 268 272 276 276 275 275 274 275 275 276 279 280 277 277 279 280 280
274 278 277 277 277 277 277 276 275 272 270 268 266 269 271 275 280 275 275 275 278 279 277 277 277 280 280
273 277 277 277 277 276 273 274 273 271 271 269 262 267 266 269 275 283 275 272 273 275 276 276 276 278 280

GFSFLT2_sfc_thetae_081.txt.gz
Theta_e
292 293 293 294 294 295 296 295 296 300 301 301 301 301 302 301 300 300 300 300 301 302 303 303 302 302 302
290 290 290 291 292 293 294 294 293 296 298 299 299 298 298 298 298 298 298 298 298 298 298 299 299 300 301
289 290 289 290 290 291 291 292 292 292 293 294 295 295 296 297 295 295 295 296 296 296 296 296 297 298 299
290 288 288 289 290 289 288 288 287 288 289 290 290 290 291 292 293 293 293 294 294 295 295 295 295 296 297
287 287 286 286 285 286 286 286 286 286 286 287 287 288 289 288 289 290 291 292 293 294 294 295 295 295 296
284 284 283 284 285 284 284 284 283 285 285 285 286 286 287 288 287 289 290 292 293 294 294 294 295 294 294
283 283 283 284 283 283 283 283 283 284 284 283 285 285 287 286 287 289 290 291 292 293 293 293 293 292 293
285 284 285 285 285 284 284 284 284 284 284 282 284 284 286 286 286 288 291 291 290 290 290 291 291 292 292
287 287 286 287 286 285 283 283 281 281 283 282 283 282 283 284 286 289 288 287 288 288 289 290 290 291 291
282 282 284 285 286 284 283 281 280 280 283 281 281 281 280 283 285 286 286 285 287 287 288 288 289 289 289
281 282 283 283 283 283 282 281 281 280 284 283 282 282 281 280 283 284 284 285 285 286 285 286 286 288 287
280 280 281 281 282 283 283 284 283 282 284 283 281 281 280 279 278 283 284 284 285 283 284 284 285 287 288
279 280 281 281 280 281 283 284 284 284 284 283 282 282 281 279 279 280 281 283 284 283 284 284 284 285 284
280 280 281 281 281 282 281 281 280 280 283 282 282 281 280 280 280 279 280 278 283 283 283 283 284 285 285
279 280 280 281 280 281 280 280 278 278 279 280 281 280 280 279 277 279 279 280 281 282 281 280 283 284 284
280 280 279 279 279 280 280 279 278 278 278 279 278 277 278 279 281 279 280 280 281 281 281 279 279 284 285
279 279 279 279 278 278 278 278 277 277 277 278 276 274 274 273 279 283 280 280 280 280 281 281 280 282 283

GFSFLT2_sfc_thetae_084.txt.gz
Theta_e
296 296 296 296 297 297 297 296 296 301 302 301 301 302 302 302 301 301 301 301 301 302 302 303 304 304 303
295 295 293 294 295 296 296 297 296 296 298 298 298 298 298 299 298 298 298 298 298 298 299 299 300 301 301
294 295 293 293 294 294 294 294 293 291 293 294 295 296 296 297 296 295 295 295 296 296 296 297 297 298 299
294 293 293 293 294 292 293 292 291 291 290 290 290 290 291 292 293 293 294 294 295 294 295 295 295 296 297
292 292 291 290 289 289 289 289 290 289 289 290 290 290 291 290 289 290 291 292 293 294 294 294 295 296 296
289 288 287 288 288 287 287 286 286 289 287 287 288 288 290 290 288 289 290 291 292 293 294 295 294 295 295
287 287 286 287 286 286 286 285 285 287 286 285 288 287 289 289 287 289 290 291 292 293 293 294 294 294 293
288 287 288 288 288 287 286 286 287 287 287 284 287 287 289 289 286 288 291 291 291 290 291 292 292 292 292
287 287 286 287 288 288 286 285 284 284 286 284 286 285 286 287 288 290 289 288 288 289 290 290 290 291 291
285 285 286 287 287 286 286 284 284 284 285 283 284 284 283 287 287 289 289 288 287 288 289 289 289 289 290
285 285 285 286 286 286 285 284 282 283 285 283 282 282 283 283 285 287 287 287 287 287 288 288 288 288 288
283 284 284 285 285 285 285 285 285 283 284 284 282 281 280 279 280 285 286 287 287 286 286 287 288 288 289
283 283 284 285 283 283 284 285 285 285 285 285 283 282 281 280 279 281 282 285 287 285 285 284 285 287 286
283 284 284 283 282 283 282 282 281 281 286 285 283 283 280 281 281 280 282 280 285 285 285 285 285 286 286
283 283 283 283 282 283 281 281 279 279 280 283 284 283 282 282 280 281 282 283 284 283 282 282 284 285 286
283 283 282 282 281 281 281 280 278 279 279 281 281 280 281 283 283 281 282 282 284 283 282 280 281 284 286
282 282 282 281 281 280 279 279 278 279 280 280 279 277 276 276 283 285 281 282 283 282 283 283 282 284 285

GFSFLT2_sfc_thetae_087.txt.gz
Theta_e
297 297 296 296 297 298 298 296 297 301 302 302 303 303 303 303 303 303 303 302 302 302 303 304 305 305 304
295 295 294 295 296 296 296 297 297 296 298 299 299 299 299 299 299 299 299 299 298 298 299 300 300 301 301
293 295 294 294 294 295 294 294 292 293 294 295 296 296 297 298 297 296 296 296 296 297 297 297 297 298 299
294 292 293 293 293 290 291 291 290 291 291 290 290 290 291 292 293 293 294 294 295 295 295 295 295 296 297
291 291 289 289 287 287 286 286 287 287 287 287 287 287 288 289 290 290 290 291 292 293 294 294 294 295 295
288 286 285 285 286 285 285 283 283 287 284 284 286 285 286 287 290 290 291 291 291 292 293 294 294 294 294
285 285 284 285 284 284 283 283 282 284 283 282 285 284 286 288 288 289 290 291 291 292 293 293 293 294 294
287 286 286 286 286 285 284 283 284 284 284 281 284 283 285 286 288 288 291 292 291 291 291 291 291 292 292
288 288 287 288 288 285 284 282 282 281 283 281 283 282 284 283 285 290 289 289 289 289 290 290 290 290 289
283 284 285 286 287 284 284 280 281 281 282 280 281 281 279 283 283 284 284 289 288 288 289 290 290 286 285
282 283 283 284 284 283 283 282 281 281 284 281 281 281 281 280 281 283 283 284 283 284 288 289 290 288 282
282 282 282 283 283 283 283 284 285 281 284 284 278 281 280 279 278 281 281 282 281 283 285 286 288 289 290
281 282 283 283 281 281 283 284 282 283 284 278 278 281 280 279 279 280 280 283 284 282 284 283 283 285 281
282 282 283 282 282 283 282 282 280 281 284 284 277 276 279 280 280 279 280 279 280 279 282 283 283 283 283
281 281 281 281 281 283 281 280 279 278 279 283 283 283 281 280 278 279 278 279 281 283 282 281 282 282 282
281 281 280 280 279 281 281 279 278 278 279 280 281 280 279 281 282 277 278 279 278 283 282 280 279 281 283
280 280 280 280 280 277 277 279 278 278 279 280 279 277 274 273 279 286 278 276 281 281 281 280 279 281 282

GFSFLT2_sfc_thetae_090.txt.gz
Theta_e
296 295 294 295 296 296 297 296 297 302 302 302 302 303 303 304 304 304 304 304 304 303 304 304 305 305 306
294 293 293 294 293 291 294 295 290 297 299 300 300 300 299 300 300 300 300 300 299 299 300 300 301 302 302
292 293 291 289 289 290 290 288 290 294 295 296 296 297 298 298 298 297 297 297 297 298 298 298 298 299 299
292 289 288 289 288 285 285 286 285 289 290 290 291 291 292 293 294 293 294 295 295 295 295 295 295 295 296
289 284 284 283 282 282 281 281 282 282 282 282 283 283 285 289 290 291 290 291 292 292 293 294 294 295 295
280 282 280 280 281 280 279 276 276 281 280 280 282 281 283 284 290 290 291 291 291 292 292 293 294 294 294
281 280 279 281 279 278 279 278 277 280 280 279 281 280 282 287 289 289 290 291 291 292 293 293 293 293 293
282 282 282 282 282 281 280 280 281 281 280 275 280 280 282 282 289 290 291 292 292 291 291 291 291 292 292
289 288 289 289 287 281 278 277 276 278 280 278 278 278 280 281 282 290 290 290 289 289 290 290 291 291 288
280 282 285 285 287 281 278 272 273 274 279 274 276 276 273 279 280 282 282 288 289 289 289 290 290 286 283
279 279 280 280 280 280 281 274 272 271 282 274 272 278 276 277 277 278 280 282 281 282 288 288 289 288 280
279 278 278 277 278 279 281 279 279 277 278 282 274 274 278 278 275 277 276 278 276 276 282 286 287 288 289
277 276 276 275 275 276 278 282 281 281 281 280 272 271 278 277 276 278 279 277 281 280 283 283 283 284 283
276 276 277 274 275 276 276 280 279 279 283 283 281 273 268 273 279 278 280 278 274 279 283 283 283 284 281
276 276 278 279 278 276 278 279 278 277 278 282 283 282 280 280 277 279 278 276 276 278 282 281 283 283 282
278 278 278 279 278 275 275 275 274 274 278 279 280 279 279 279 283 277 276 275 274 280 282 280 280 280 281
278 278 279 279 281 275 273 273 273 273 273 279 278 277 274 272 275 284 277 271 273 275 277 277 278 280 280

GFSFLT2_sfc_thetae_093.txt.gz
Theta_e
295 295 294 295 296 295 297 296 297 302 302 303 303 303 304 304 305 306 306 306 306 306 305 305 305 306 306
293 293 293 294 293 291 293 294 291 298 300 300 300 301 300 300 301 301 301 301 301 301 301 302 303 303 303
292 293 291 289 289 289 289 287 289 294 295 295 296 298 299 299 299 298 298 298 299 299 299 299 299 299 300
292 290 287 288 287 286 284 284 283 287 289 291 291 293 293 294 294 294 294 295 296 296 295 295 295 296 296
289 283 284 283 283 282 281 281 281 280 281 281 281 282 284 290 290 291 291 291 292 292 293 294 294 294 295
280 283 281 281 281 280 279 276 276 281 279 279 280 280 282 283 290 290 290 291 291 292 292 293 294 294 294
282 281 280 281 280 278 279 277 276 279 279 278 280 280 281 285 289 289 290 291 291 292 293 293 293 293 293
283 281 281 282 282 281 280 279 280 280 279 275 279 279 281 281 290 290 292 291 292 292 292 291 291 292 292
289 290 290 289 285 281 277 276 276 278 279 278 277 277 279 280 282 290 290 290 290 290 290 290 291 291 290
280 284 284 286 287 281 278 271 272 273 278 274 275 275 272 278 279 281 281 288 289 289 290 289 290 288 284
279 279 280 280 279 280 280 273 268 269 281 274 267 272 272 273 276 277 279 280 280 281 287 288 288 288 286
279 278 278 278 277 278 280 278 277 274 278 276 269 268 268 274 272 276 275 277 274 274 281 286 287 287 288
278 277 276 277 275 275 277 276 274 279 280 278 277 266 268 273 272 275 277 276 278 276 283 283 283 284 282
276 276 276 273 273 272 270 272 274 276 280 283 280 280 276 270 271 274 276 276 272 273 276 278 283 284 283
277 276 278 277 276 272 272 273 274 272 273 276 282 281 279 278 277 277 278 278 273 274 278 278 278 281 281
277 277 277 277 276 274 274 275 275 274 272 272 273 275 277 279 282 277 278 277 274 274 278 279 278 278 280
276 276 276 277 281 277 277 276 274 273 272 271 271 272 271 271 276 282 276 278 277 278 277 275 276 278 279

GFSFLT2_sfc_thetae_096.txt.gz
Theta_e
295 295 295 295 296 294 295 295 298 303 303 303 303 303 304 304 305 306 307 307 308 308 307 307 306 307 307
293 293 293 294 294 293 293 292 293 299 300 301 301 302 302 302 302 302 302 302 302 303 304 304 305 305 305
292 293 291 289 287 288 287 286 288 293 294 295 298 299 299 300 299 299 298 300 300 300 301 300 300 301 301
292 290 289 287 286 285 284 284 283 286 289 291 292 293 294 295 294 294 295 296 297 296 296 296 296 296 297
289 287 283 283 283 282 282 281 280 280 281 281 281 281 285 289 290 291 291 291 292 293 293 294 294 294 295
279 284 281 281 281 281 280 277 278 281 279 279 280 280 281 283 290 290 291 291 291 291 292 293 294 294 294
284 283 281 282 281 279 279 278 278 279 279 278 279 279 281 284 290 290 290 291 291 292 293 293 293 293 293
283 282 283 283 283 282 280 279 279 280 279 275 278 279 280 281 290 291 292 291 292 292 292 291 292 292 292
289 289 289 289 285 282 279 278 276 278 279 278 277 277 279 280 281 290 290 290 290 290 290 290 290 291 289
283 285 286 288 289 282 280 272 274 274 278 274 274 275 272 278 279 280 281 288 289 289 290 289 289 285 284
280 280 280 281 281 281 280 275 271 269 280 273 266 271 270 272 276 277 279 280 279 280 286 287 288 288 285
279 279 279 279 279 280 280 278 277 274 278 272 267 268 265 269 273 276 275 275 274 275 276 284 287 287 287
279 278 279 279 278 276 277 276 271 276 278 272 272 267 271 270 270 272 274 275 275 273 281 278 281 283 282
278 278 278 277 277 274 271 269 269 272 278 276 275 275 274 277 273 271 272 270 271 272 275 275 278 282 283
278 277 279 278 277 273 270 269 268 268 271 274 280 280 278 275 273 274 274 278 279 272 274 274 276 279 280
277 278 278 277 276 272 270 272 273 270 270 270 271 273 276 278 281 275 276 278 278 273 275 274 272 277 280
278 277 277 276 280 276 276 276 276 273 273 270 268 269 271 271 275 283 274 273 273 274 276 276 276 277 279

GFSFLT2_sfc_thetae_099.txt.gz
Theta_e
295 295 295 296 296 296 296 296 299 304 303 303 303 303 304 305 306 307 308 309 310 311 310 309 309 309 309
293 293 293 295 295 293 293 293 294 299 300 302 302 302 302 302 302 302 303 304 305 306 306 307 307 307 307
292 293 292 291 290 289 286 285 287 292 294 296 299 300 301 300 299 300 300 301 301 301 301 302 302 303 303
292 291 290 290 289 285 283 283 283 285 289 291 293 294 296 295 295 294 296 297 298 297 297 297 297 297 298
290 288 287 286 283 284 282 281 281 281 281 281 281 282 285 288 290 292 292 292 293 294 294 294 294 294 295
287 287 285 283 282 282 280 278 278 281 279 280 280 280 281 282 290 291 291 292 291 292 292 293 294 294 295
286 284 282 282 281 279 280 279 278 280 280 278 280 280 281 283 290 291 290 291 292 293 294 294 293 293 293
286 284 283 283 283 283 281 280 280 281 279 276 279 279 280 281 289 292 292 291 292 292 292 292 292 292 293
288 289 289 289 285 282 281 280 278 279 280 279 278 278 278 279 281 290 290 291 290 290 290 290 291 291 288
284 286 287 288 288 283 281 276 276 276 279 277 276 275 272 278 278 280 280 289 290 289 290 290 290 284 282
281 281 281 282 281 282 281 277 273 274 281 275 266 271 269 272 276 277 279 279 279 280 285 288 288 287 279
280 280 280 280 280 281 281 280 279 278 280 273 268 269 264 267 272 276 275 275 275 275 275 283 286 287 288
279 278 279 280 279 279 279 279 278 279 279 272 270 264 267 266 268 272 274 275 275 273 274 275 275 279 277
279 279 279 277 277 276 274 276 274 274 278 274 271 271 268 270 271 270 272 270 272 273 275 275 277 279 279
278 278 279 279 278 274 272 270 271 270 271 275 280 278 275 273 271 274 274 271 273 274 274 271 275 277 279
279 278 277 277 276 272 270 271 271 271 270 271 271 274 276 278 281 276 273 275 279 279 275 275 277 277 279
280 278 277 277 280 275 274 273 274 273 274 274 272 272 272 272 276 284 277 272 274 276 275 275 273 276 279

GFSFLT2_sfc_thetae_102.txt.gz
Theta_e
295 296 296 297 296 296 295 297 301 304 304 304 304 304 304 305 306 308 310 312 314 314 314 314 313 312 310
293 293 294 295 295 294 292 293 294 299 301 302 303 303 303 302 302 304 305 306 308 309 310 310 311 310 309
292 293 292 292 291 290 288 287 288 293 296 299 300 301 300 300 300 301 302 303 303 303 304 305 306 306 306
293 291 290 290 290 287 285 283 283 285 289 292 294 297 296 295 295 296 298 299 299 299 299 298 299 300 300
291 289 287 287 287 286 284 281 280 281 281 281 282 283 285 288 290 292 293 295 295 296 296 296 296 296 298
289 288 287 287 285 284 281 280 280 281 280 281 281 282 282 283 291 291 292 292 292 293 293 294 295 295 296
289 289 287 286 283 281 281 279 279 280 280 279 281 281 282 284 291 291 290 292 293 293 294 294 295 294 294
288 288 285 284 285 284 282 279 280 281 280 278 280 280 281 282 289 292 291 292 292 294 293 293 293 294 294
289 289 289 289 286 283 280 280 279 280 281 280 279 279 280 281 282 291 291 292 291 292 291 291 291 292 289
283 285 287 288 288 283 282 279 279 278 280 279 278 278 276 279 280 280 281 290 290 290 290 290 291 284 283
281 282 282 281 282 282 282 280 277 278 282 278 274 276 273 276 278 278 279 279 279 280 286 288 289 287 281
280 280 280 280 281 281 281 280 281 280 283 278 274 274 270 271 275 277 275 275 275 275 276 283 287 288 289
279 278 280 280 279 279 279 280 279 281 280 277 276 270 270 270 273 274 273 275 276 274 275 276 277 279 277
278 278 279 276 276 277 276 276 274 275 279 274 275 274 269 271 271 270 273 271 272 274 277 277 278 279 279
278 278 279 278 278 277 275 272 271 271 272 275 279 276 275 273 270 274 275 273 274 274 276 273 276 278 278
278 279 279 278 277 274 272 272 272 271 270 271 272 274 276 278 281 276 273 272 274 278 279 275 276 278 279
280 278 276 275 280 276 274 274 273 273 273 274 272 271 269 272 277 284 277 272 275 278 278 276 276 276 279

GFSFLT2_sfc_thetae_105.txt.gz
Theta_e
298 299 298 298 298 297 298 300 304 305 305 304 305 304 304 306 307 309 312 315 320 321 320 318 316 314 313
295 295 296 297 296 294 294 294 298 301 303 304 304 303 303 304 305 306 307 309 312 313 314 314 313 312 311
295 295 294 294 292 290 289 289 291 296 298 301 302 301 300 300 301 302 303 304 305 306 308 310 310 310 310
295 293 292 292 292 288 286 287 287 289 292 294 297 297 296 296 296 298 300 300 301 301 301 302 303 305 305
293 291 289 288 289 289 287 285 285 288 288 287 289 289 290 291 292 293 295 297 298 298 298 298 298 299 301
291 290 290 290 288 287 285 284 285 287 287 285 287 286 287 291 291 292 292 293 294 294 295 295 296 298 299
291 291 289 289 287 285 285 286 287 284 284 285 286 286 287 288 292 291 291 292 293 294 294 295 296 296 296
291 291 291 291 292 290 288 285 284 283 285 284 285 285 286 287 290 292 291 292 293 294 295 295 295 294 295
289 290 290 290 289 288 286 285 283 283 284 285 283 283 284 285 288 291 292 293 293 294 293 293 293 293 294
288 288 290 290 289 287 287 286 284 282 284 284 282 283 282 284 285 287 289 291 291 291 291 292 292 291 291
286 286 286 286 286 286 286 287 284 284 284 284 282 281 282 282 283 284 285 286 287 287 288 290 291 290 289
284 284 284 284 284 285 284 284 285 285 286 284 282 282 282 280 281 282 283 283 284 285 286 286 288 290 290
282 283 284 285 283 283 283 283 284 284 283 282 282 279 281 282 281 280 281 283 283 283 284 284 286 286 286
283 283 283 282 282 283 282 282 282 282 282 281 282 281 280 280 280 280 281 281 281 282 283 283 283 284 284
283 282 282 282 282 282 281 281 281 281 281 281 281 281 281 281 279 280 280 280 281 281 281 281 282 283 283
283 283 282 282 281 281 281 281 281 280 280 280 280 280 280 282 283 281 280 280 281 281 281 279 279 282 283
283 283 282 281 282 281 280 280 279 280 280 280 279 279 277 277 281 284 281 280 280 280 281 280 280 282 284

GFSFLT2_sfc_thetae_108.txt.gz
Theta_e
306 304 302 301 300 299 300 302 304 305 305 305 304 304 305 306 308 310 313 318 324 325 325 324 321 318 316
300 299 299 299 298 295 295 295 299 303 303 304 304 303 303 304 305 306 308 310 313 318 319 317 316 315 315
298 297 296 296 293 291 290 290 293 295 299 302 302 300 300 300 302 303 304 306 307 308 312 312 312 312 312
299 296 295 294 293 289 288 288 288 290 294 297 298 296 296 296 297 299 300 302 303 304 304 305 308 310 310
296 293 291 290 290 290 288 287 287 288 290 293 295 294 292 292 293 295 297 298 299 300 300 301 302 303 304
294 291 291 292 291 289 286 285 285 288 290 290 291 290 291 293 292 292 293 295 296 296 297 297 299 300 302
292 293 292 292 290 288 287 288 288 288 291 289 289 288 288 290 292 291 292 292 293 294 294 295 297 298 298
292 293 292 292 291 291 289 287 286 286 289 287 287 286 288 291 290 292 292 293 294 294 294 295 296 296 295
291 291 291 292 294 293 288 288 288 288 287 287 286 286 287 288 291 292 292 293 294 294 294 295 295 295 295
289 290 292 291 290 293 293 290 289 286 287 286 284 285 284 287 289 290 292 292 292 293 293 293 293 293 294
289 290 290 289 289 289 290 291 289 288 288 288 286 285 286 284 285 288 289 289 290 290 290 291 292 291 292
287 287 287 287 288 288 287 288 289 287 289 286 285 286 286 284 284 285 286 288 288 288 289 289 290 291 291
285 286 287 288 286 286 285 286 285 286 286 285 286 284 285 285 284 283 283 285 286 286 287 287 288 289 288
286 286 287 286 286 286 285 285 285 284 284 284 284 284 284 284 284 283 284 283 285 285 285 286 286 287 287
286 285 285 285 285 285 285 284 284 284 283 283 284 284 284 283 282 283 284 283 284 284 283 283 285 285 285
286 286 285 284 284 284 284 283 283 284 284 284 283 282 282 284 285 284 283 283 284 283 284 282 283 286 285
287 286 286 285 284 284 283 283 283 284 284 284 283 282 280 280 284 285 284 283 283 282 283 282 283 285 285

GFSFLT2_sfc_thetae_111.txt.gz
Theta_e
307 304 304 302 300 300 301 302 304 305 305 305 304 304 304 305 307 309 310 315 323 325 325 326 326 324 321
303 301 300 300 298 296 295 295 299 303 304 304 303 302 302 303 304 306 307 310 315 321 323 323 321 319 318
300 299 297 297 293 292 291 291 294 295 299 302 301 300 299 300 301 302 304 306 308 311 313 315 316 316 316
299 297 296 295 294 290 289 289 289 291 294 297 297 296 296 297 297 299 301 303 305 306 307 308 310 312 314
297 294 292 290 290 291 289 287 287 288 288 290 294 291 290 293 294 296 298 300 301 302 304 304 306 306 307
295 292 292 291 291 289 287 285 285 288 287 288 288 287 288 290 292 293 294 296 297 298 299 301 302 304 304
293 292 292 292 290 288 287 287 287 287 287 288 286 285 286 290 293 291 292 293 295 295 296 298 300 301 300
291 292 292 292 291 290 288 286 285 285 286 286 285 284 285 288 291 292 292 293 294 294 295 296 297 297 298
292 292 293 293 293 289 286 286 285 285 286 284 283 283 284 285 289 292 292 293 295 295 295 295 295 295 294
289 290 292 291 293 290 290 287 287 285 285 283 282 282 280 284 287 288 289 293 294 294 294 294 294 291 290
287 287 288 288 287 287 288 288 286 284 286 285 282 281 283 280 283 285 287 288 288 289 292 293 293 291 288
285 285 285 285 285 285 285 285 285 285 285 285 284 282 282 280 280 284 285 286 286 286 286 290 292 292 292
283 284 285 284 283 283 283 284 284 284 284 280 284 281 282 282 282 281 281 283 284 284 284 283 284 285 284
284 284 284 282 282 283 282 283 283 281 283 281 282 281 279 281 282 281 281 280 283 283 283 283 284 285 285
284 283 283 283 282 282 282 282 280 282 281 282 283 283 282 280 278 281 281 280 281 281 282 281 283 284 284
284 283 282 282 281 281 281 281 281 282 281 281 280 279 280 282 284 280 281 281 282 282 281 279 280 284 284
284 283 282 282 282 281 281 281 281 281 283 283 281 279 276 276 281 286 281 282 282 281 281 281 279 282 283

GFSFLT2_sfc_thetae_114.txt.gz
Theta_e
301 301 302 299 299 299 300 301 303 305 305 305 304 304 303 304 305 307 309 312 319 324 326 327 327 326 325
300 299 299 299 298 296 295 296 299 303 305 304 303 301 301 302 302 305 307 309 313 319 322 324 325 324 323
299 298 296 296 293 292 292 292 294 296 299 302 301 299 299 300 300 302 304 306 309 311 314 319 320 320 320
297 296 295 294 294 291 289 290 290 291 294 298 297 295 295 296 297 298 301 303 306 308 309 310 312 315 317
294 292 292 291 290 292 289 288 288 289 288 289 292 290 288 292 293 296 298 300 302 304 306 307 307 308 309
292 292 292 292 292 289 287 286 287 288 286 287 288 286 285 287 293 293 295 297 298 300 302 304 305 305 305
292 291 291 292 290 288 287 286 287 287 286 286 286 283 284 289 293 292 293 294 296 297 300 303 302 302 302
287 289 291 291 291 290 289 287 285 285 286 285 284 281 282 283 292 292 292 293 294 295 296 299 300 300 300
292 293 293 294 293 289 285 285 284 284 285 285 283 280 281 281 285 292 292 293 295 295 296 297 297 298 296
285 287 291 292 295 290 287 286 286 285 285 284 277 278 275 281 283 285 286 293 294 295 296 295 295 290 289
283 283 284 284 283 285 286 287 286 285 283 281 276 276 282 276 278 280 284 285 285 287 293 294 294 291 288
282 282 280 279 279 280 282 282 285 285 282 280 281 276 275 275 276 279 279 280 280 281 283 289 293 293 292
279 278 278 280 279 278 279 283 283 280 282 281 283 283 283 279 276 277 277 279 281 281 282 282 284 286 285
279 278 279 276 276 276 273 274 274 280 281 278 280 279 277 278 277 276 278 277 278 280 282 282 284 285 285
278 278 279 278 278 275 274 274 273 274 277 279 282 282 282 280 277 279 279 278 279 279 281 279 282 283 284
278 279 278 277 275 274 274 273 274 275 276 277 277 279 279 282 285 279 280 279 279 281 280 276 279 282 284
280 277 276 276 281 276 276 274 275 277 278 281 278 276 274 274 280 286 279 280 280 279 280 279 276 280 284

GFSFLT2_sfc_thetae_117.txt.gz
Theta_e
299 298 298 298 299 297 300 300 303 306 306 305 304 303 303 303 304 305 308 310 313 318 324 326 325 325 326
297 297 299 299 298 297 295 295 298 301 305 304 302 301 301 301 301 302 305 307 310 314 322 324 325 324 325
296 296 297 296 294 292 292 291 294 296 299 302 300 299 298 298 299 300 302 304 308 310 314 319 320 320 323
295 296 296 294 291 292 291 290 291 292 294 297 298 295 296 296 296 297 299 302 305 309 309 310 314 317 318
292 293 293 290 289 291 290 289 289 290 289 290 291 290 290 291 292 295 297 300 302 305 308 309 309 312 316
291 291 292 292 291 290 288 286 288 288 287 287 288 286 287 288 295 294 295 297 299 302 305 305 305 307 310
291 291 291 292 290 288 287 287 287 287 286 286 286 285 284 288 293 294 293 295 296 298 303 303 303 304 307
287 289 291 292 292 291 289 288 286 286 286 285 285 284 282 283 291 293 293 294 295 296 299 300 301 302 304
292 293 293 294 294 289 286 285 285 285 285 285 284 282 280 281 283 293 292 294 294 294 297 297 299 299 299
284 286 290 291 295 290 287 286 286 285 285 282 281 277 275 280 282 283 285 293 294 295 295 295 295 289 288
282 283 283 283 282 285 286 287 286 286 284 279 274 275 276 277 280 281 282 284 285 285 293 295 294 291 287
282 281 280 279 279 279 282 281 285 285 285 277 274 273 272 275 277 280 279 278 279 280 280 289 293 293 293
279 279 279 280 278 278 281 283 282 282 283 283 281 282 277 274 278 280 279 280 280 278 280 280 281 283 282
279 279 282 280 275 274 271 280 274 278 279 280 281 276 274 277 279 279 280 278 279 281 283 282 285 285 285
278 279 279 278 277 273 272 271 271 275 277 278 281 281 279 279 279 281 280 280 279 281 282 281 283 285 284
278 278 277 275 274 274 272 271 271 274 274 275 276 277 280 282 285 280 279 279 279 281 281 279 280 282 284
277 276 274 273 278 273 272 272 273 277 277 277 275 271 272 276 281 286 279 278 279 279 279 280 278 280 283